DW5684 Weather Reports


time (UTC)temp
F
wind
direction
speed
knots
gust
knots
rain 1hr
in
rain 24hr
in
rain mn
in
humidity
%
barometer
mb
20260906175325 101 105 2.6 7.0 0.00 0.00 0.00 40 1014.7
20260906174820 100 349 1.7 4.3 0.00 0.00 0.00 38 1014.7
20260906174315 101 322 2.6 4.3 0.00 0.00 0.00 37 1015.0
20260906173831 100 96 1.7 4.3 0.00 0.00 0.00 40 1015.0
20260906173309 99 317 0.9 3.5 0.00 0.00 0.00 42 1015.1
20260906172844 99 284 0.9 2.6 0.00 0.00 0.00 42 1015.2
20260906172339 100 217 0.9 4.3 0.00 0.00 0.00 40 1015.3
20260906171811 101 153 1.7 4.3 0.00 0.00 0.00 39 1015.4
20260906171326 101 229 0.9 4.3 0.00 0.00 0.00 40 1015.5
20260906170821 101 330 0.9 4.3 0.00 0.00 0.00 42 1015.5
20260906170316 100 69 0.9 4.3 0.00 0.00 0.00 41 1015.6
20260906165811 100 338 1.7 4.3 0.00 0.00 0.00 42 1015.6
20260906165311 100 358 2.6 4.3 0.00 0.00 0.00 42 1015.6
20260906164826 100 203 0.0 3.5 0.00 0.00 0.00 43 1015.8
20260906164321 100 312 0.0 4.3 0.00 0.00 0.00 41 1015.8
20260906163815 100 148 0.9 4.3 0.00 0.00 0.00 44 1015.9
20260906163309 99 347 0.9 3.5 0.00 0.00 0.00 42 1015.8
20260906162822 99 86 1.7 3.5 0.00 0.00 0.00 43 1015.9
20260906162315 99 102 0.9 3.5 0.00 0.00 0.00 44 1016.0
20260906161809 98 217 0.0 3.5 0.00 0.00 0.00 45 1016.0
20260906161309 98 320 0.9 2.6 0.00 0.00 0.00 45 1016.0
20260906160824 98 281 0.0 1.7 0.00 0.00 0.00 44 1016.1
20260906160318 98 1 0.9 1.7 0.00 0.00 0.00 46 1016.1
20260906155833 98 248 0.0 1.7 0.00 0.00 0.00 47 1016.1
20260906155327 97 145 0.0 2.6 0.00 0.00 0.00 49 1016.1
20260906154822 96 301 0.9 2.6 0.00 0.00 0.00 48 1016.1
20260906154319 96 303 0.0 1.7 0.00 0.00 0.00 49 1016.0
20260906153813 96 125 0.9 2.6 0.00 0.00 0.00 48 1015.9
20260906153329 96 67 0.9 2.6 0.00 0.00 0.00 48 1015.9
20260906152843 96 257 0.0 2.6 0.00 0.00 0.00 49 1015.9
20260906152321 95 115 0.9 2.6 0.00 0.00 0.00 49 1015.9
20260906151817 95 108 0.0 0.9 0.00 0.00 0.00 51 1015.9
20260906151312 94 7 0.0 0.9 0.00 0.00 0.00 52 1015.8
20260906150826 94 297 0.0 0.0 0.00 0.00 0.00 50 1015.9
20260906150322 95 276 0.0 2.6 0.00 0.00 0.00 49 1015.8
20260906145836 94 171 0.0 2.6 0.00 0.00 0.00 51 1015.9
20260906145310 93 217 0.0 0.0 0.00 0.00 0.00 53 1015.9
20260906144825 92 327 0.0 0.0 0.00 0.00 0.00 52 1015.9
20260906144323 93 77 0.0 0.0 0.00 0.00 0.00 52 1015.9
20260906143817 93 232 0.0 0.0 0.00 0.00 0.00 53 1015.9
20260906143313 92 181 0.0 0.9 0.00 0.00 0.00 55 1015.8
20260906142808 92 155 0.0 0.0 0.00 0.00 0.00 56 1015.8
20260906142343 92 157 0.0 0.0 0.00 0.00 0.00 55 1015.8
20260906141837 93 165 0.0 0.0 0.00 0.00 0.00 55 1015.7
20260906141312 92 165 0.0 0.0 0.00 0.00 0.00 54 1015.6
20260906140827 92 161 0.0 0.0 0.00 0.00 0.00 57 1015.7
20260906140322 91 162 0.0 0.0 0.00 0.00 0.00 58 1015.8
20260906135821 89 53 0.0 0.0 0.00 0.00 0.00 59 1015.8
20260906135314 88 53 0.0 0.0 0.00 0.00 0.00 62 1015.8
20260906134848 87 276 0.0 0.0 0.00 0.00 0.00 63 1015.8
20260906134322 86 115 0.0 0.0 0.00 0.00 0.00 65 1015.6
20260906133816 85 115 0.0 0.0 0.00 0.00 0.00 68 1015.6
20260906133311 85 155 0.0 0.0 0.00 0.00 0.00 67 1015.8
20260906132826 84 148 0.0 0.0 0.00 0.00 0.00 69 1015.6
20260906132320 83 79 0.0 0.0 0.00 0.00 0.00 70 1015.6
20260906131819 83 106 0.0 0.0 0.00 0.00 0.00 70 1015.5
20260906131314 82 110 0.0 0.0 0.00 0.00 0.00 74 1015.4
20260906130809 81 110 0.0 0.0 0.00 0.00 0.00 73 1015.4
20260906130323 80 195 0.0 0.0 0.00 0.00 0.00 77 1015.3
20260906125837 78 195 0.0 0.0 0.00 0.00 0.00 80 1015.1
20260906125310 76 269 0.0 0.0 0.00 0.00 0.00 83 1015.2
20260906124824 75 269 0.0 0.0 0.00 0.00 0.00 86 1015.1
20260906124318 73 269 0.0 0.0 0.00 0.00 0.00 87 1015.1
20260906123817 72 269 0.0 0.0 0.00 0.00 0.00 89 1015.0
20260906123310 72 269 0.0 0.0 0.00 0.00 0.00 89 1015.0
20260906122824 72 269 0.0 0.0 0.00 0.00 0.00 89 1015.0
20260906122318 71 269 0.0 0.0 0.00 0.00 0.00 89 1014.9
20260906121813 71 269 0.0 0.0 0.00 0.00 0.00 89 1014.9
20260906121308 71 269 0.0 0.0 0.00 0.00 0.00 89 1014.9
20260906120823 71 269 0.0 0.0 0.00 0.00 0.00 89 1014.9
20260906120318 71 269 0.0 0.0 0.00 0.00 0.00 90 1014.8
20260906115817 71 269 0.0 0.0 0.00 0.00 0.00 90 1014.8
20260906115311 71 269 0.0 0.0 0.00 0.00 0.00 90 1014.6
20260906114826 71 269 0.0 0.0 0.00 0.00 0.00 89 1014.7
20260906114319 70 269 0.0 0.0 0.00 0.00 0.00 89 1014.5
20260906113832 71 269 0.0 0.0 0.00 0.00 0.00 88 1014.5
20260906113346 71 269 0.0 0.0 0.00 0.00 0.00 88 1014.5
20260906112821 71 269 0.0 0.0 0.00 0.00 0.00 88 1014.5
20260906112338 71 269 0.0 0.0 0.00 0.00 0.00 88 1014.4
20260906111813 71 269 0.0 0.0 0.00 0.00 0.00 87 1014.4
20260906111312 71 269 0.0 0.0 0.00 0.00 0.00 88 1014.4
20260906110826 72 269 0.0 0.0 0.00 0.00 0.00 87 1014.3
20260906110321 72 269 0.0 0.0 0.00 0.00 0.00 87 1014.4
20260906105835 72 269 0.0 0.0 0.00 0.00 0.00 87 1014.3
20260906105308 72 269 0.0 0.0 0.00 0.00 0.00 86 1014.3
20260906104823 72 269 0.0 0.0 0.00 0.00 0.00 86 1014.3
20260906104319 72 269 0.0 0.0 0.00 0.00 0.00 86 1014.2
20260906103834 73 269 0.0 0.0 0.00 0.00 0.00 86 1014.3
20260906103308 73 269 0.0 0.0 0.00 0.00 0.00 86 1014.2
20260906102843 73 269 0.0 0.0 0.00 0.00 0.00 86 1014.2
20260906102320 73 269 0.0 0.0 0.00 0.00 0.00 86 1014.2
20260906101815 73 269 0.0 0.0 0.00 0.00 0.00 86 1014.1
20260906101309 73 269 0.0 0.0 0.00 0.00 0.00 85 1014.1
20260906100823 73 269 0.0 0.0 0.00 0.00 0.00 85 1014.1
20260906100318 73 269 0.0 0.0 0.00 0.00 0.00 85 1014.0
20260906095813 73 269 0.0 0.0 0.00 0.00 0.00 85 1014.0
20260906095308 73 269 0.0 0.0 0.00 0.00 0.00 85 1014.0
20260906094822 73 269 0.0 0.0 0.00 0.00 0.00 85 1013.9
20260906094321 73 269 0.0 0.0 0.00 0.00 0.00 85 1013.9
20260906093816 72 269 0.0 0.0 0.00 0.00 0.00 85 1013.9
20260906093310 73 269 0.0 0.0 0.00 0.00 0.00 85 1013.9
20260906092825 73 269 0.0 0.0 0.00 0.00 0.00 85 1013.9
20260906092340 73 269 0.0 0.0 0.00 0.00 0.00 85 1013.9
20260906091814 73 269 0.0 0.0 0.00 0.00 0.00 85 1013.9
20260906091309 73 269 0.0 0.0 0.00 0.00 0.00 85 1014.0
20260906090844 73 269 0.0 0.0 0.00 0.00 0.00 85 1014.1
20260906090318 73 269 0.0 0.0 0.00 0.00 0.00 85 1014.0
20260906085837 73 269 0.0 0.0 0.00 0.00 0.00 85 1013.9
20260906085309 73 269 0.0 0.0 0.00 0.00 0.00 84 1014.0
20260906084845 73 269 0.0 0.0 0.00 0.00 0.00 84 1013.9
20260906084318 74 269 0.0 0.0 0.00 0.00 0.00 84 1014.0
20260906083813 74 269 0.0 0.0 0.00 0.00 0.00 83 1014.0
20260906083308 74 269 0.0 0.0 0.00 0.00 0.00 83 1013.9
20260906082823 74 269 0.0 0.0 0.00 0.00 0.00 82 1014.0
20260906082338 74 269 0.0 0.0 0.00 0.00 0.00 82 1014.0
20260906081811 75 269 0.0 0.0 0.00 0.00 0.00 82 1013.9
20260906081310 75 269 0.0 0.0 0.00 0.00 0.00 82 1013.9
20260906080825 75 269 0.0 0.0 0.00 0.00 0.00 82 1013.9
20260906080320 74 269 0.0 0.0 0.00 0.00 0.00 82 1013.9
20260906075814 74 269 0.0 0.0 0.00 0.00 0.00 81 1013.9
20260906075309 74 269 0.0 0.0 0.00 0.00 0.00 81 1013.8
20260906074823 75 269 0.0 0.0 0.00 0.00 0.00 81 1013.8
20260906074318 75 269 0.0 0.0 0.00 0.00 0.00 81 1013.8
20260906073813 75 269 0.0 0.0 0.00 0.00 0.00 81 1013.8
20260906073312 75 269 0.0 0.0 0.00 0.00 0.00 81 1013.9
20260906072826 75 269 0.0 0.0 0.00 0.00 0.00 80 1013.9
20260906072321 75 269 0.0 0.0 0.00 0.00 0.00 80 1014.0
20260906071816 75 269 0.0 0.0 0.00 0.00 0.00 80 1014.0
20260906071311 75 269 0.0 0.0 0.00 0.00 0.00 81 1014.0
20260906070826 75 269 0.0 0.0 0.00 0.00 0.00 80 1014.1
20260906070321 75 269 0.0 0.0 0.00 0.00 0.00 80 1014.1
20260906065835 75 269 0.0 0.0 0.00 0.00 0.00 80 1014.1
20260906065313 75 269 0.0 0.0 0.00 0.00 0.00 80 1014.1
20260906064809 76 269 0.0 0.0 0.00 0.00 0.00 79 1014.1
20260906064324 75 269 0.0 0.0 0.00 0.00 0.00 79 1014.0
20260906063819 75 269 0.0 0.0 0.00 0.00 0.00 79 1014.0
20260906063314 76 270 0.0 0.0 0.00 0.00 0.00 78 1014.1
20260906062829 76 270 0.0 0.0 0.00 0.00 0.00 78 1014.1
20260906062323 76 270 0.0 0.0 0.00 0.00 0.00 78 1014.2
20260906061818 76 270 0.0 0.0 0.00 0.00 0.00 78 1014.2
20260906061317 77 269 0.0 0.0 0.00 0.00 0.00 78 1014.3
20260906060812 77 270 0.0 0.0 0.00 0.00 0.00 79 1014.3
20260906060326 77 269 0.0 0.0 0.00 0.00 0.00 79 1014.3
20260906055820 77 269 0.0 0.0 0.00 0.00 0.00 79 1014.3
20260906055315 77 267 0.0 0.0 0.00 0.00 0.00 77 1014.3
20260906054810 77 267 0.0 0.0 0.00 0.00 0.00 78 1014.3
20260906054325 78 267 0.0 0.0 0.00 0.00 0.00 77 1014.2
20260906053841 78 267 0.0 0.0 0.00 0.00 0.00 77 1014.3
20260906053313 78 267 0.0 0.0 0.00 0.00 0.00 75 1014.4
20260906052811 78 267 0.0 0.0 0.00 0.00 0.00 75 1014.4
20260906052325 78 267 0.0 0.0 0.00 0.00 0.00 75 1014.4
20260906051819 78 265 0.0 0.0 0.00 0.00 0.00 76 1014.3
20260906051314 78 265 0.0 0.0 0.00 0.00 0.00 73 1014.3
20260906050809 78 265 0.0 0.0 0.00 0.00 0.00 73 1014.1
20260906050323 78 265 0.0 0.0 0.00 0.00 0.00 73 1014.0
20260906045838 78 265 0.0 0.0 0.00 0.00 0.00 72 1014.0
20260906045431 79 265 0.0 0.0 0.00 0.00 0.00 72 1014.1
20260906044840 79 265 0.0 0.0 0.00 0.00 0.00 72 1014.0
20260906044314 79 265 0.0 0.0 0.00 0.00 0.00 73 1014.1
20260906043813 79 265 0.0 0.0 0.00 0.00 0.00 73 1014.1
20260906043327 79 265 0.0 0.0 0.00 0.00 0.00 72 1014.1
20260906042842 78 265 0.0 0.0 0.00 0.00 0.00 72 1014.1
20260906042313 79 265 0.0 0.0 0.00 0.00 0.00 72 1014.1
20260906041827 79 265 0.0 0.0 0.00 0.00 0.00 72 1014.0
20260906041321 79 265 0.0 0.0 0.00 0.00 0.00 72 1014.1
20260906040813 79 265 0.0 0.0 0.00 0.00 0.00 72 1014.1
20260906040327 79 265 0.0 0.0 0.00 0.00 0.00 72 1014.1
20260906035842 80 265 0.0 0.0 0.00 0.00 0.00 71 1014.0
20260906035315 80 265 0.0 0.0 0.00 0.00 0.00 71 1013.9
20260906034810 80 265 0.0 0.0 0.00 0.00 0.00 70 1013.9
20260906034327 80 265 0.0 0.0 0.00 0.00 0.00 70 1013.8
20260906033822 80 265 0.0 0.0 0.00 0.00 0.00 70 1013.8
20260906033317 80 265 0.0 0.0 0.00 0.00 0.00 70 1013.8
20260906032810 80 265 0.0 0.0 0.00 0.00 0.00 70 1013.8
20260906032325 80 265 0.0 0.0 0.00 0.00 0.00 70 1013.7
20260906031820 80 265 0.0 0.0 0.00 0.00 0.00 70 1013.7
20260906031315 80 265 0.0 0.0 0.00 0.00 0.00 70 1013.8
20260906030813 80 265 0.0 0.0 0.00 0.00 0.00 70 1013.6
20260906030308 80 265 0.0 0.0 0.00 0.00 0.00 70 1013.6
20260906025822 80 265 0.0 0.0 0.00 0.00 0.00 70 1013.5
20260906025316 80 265 0.0 0.0 0.00 0.00 0.00 70 1013.5
20260906024811 80 265 0.0 0.0 0.00 0.00 0.00 71 1013.5
20260906024326 80 265 0.0 0.0 0.00 0.00 0.00 71 1013.4
20260906023820 80 265 0.0 0.0 0.00 0.00 0.00 70 1013.3
20260906023316 80 265 0.0 0.0 0.00 0.00 0.00 70 1013.3
20260906022814 80 266 0.0 0.0 0.00 0.00 0.00 70 1013.2
20260906022330 80 265 0.0 0.0 0.00 0.00 0.00 71 1013.2
20260906021823 81 265 0.0 0.0 0.00 0.00 0.00 70 1013.1
20260906021319 81 265 0.0 0.0 0.00 0.00 0.00 70 1012.9
20260906020814 81 265 0.0 0.0 0.00 0.00 0.00 69 1012.9
20260906020309 82 266 0.0 0.0 0.00 0.00 0.00 68 1012.8
20260906015824 82 265 0.0 0.0 0.00 0.00 0.00 67 1012.8
20260906015319 83 265 0.0 0.0 0.00 0.00 0.00 67 1012.8
20260906014817 83 265 0.0 0.0 0.00 0.00 0.00 69 1012.7
20260906014312 83 265 0.0 0.0 0.00 0.00 0.00 66 1012.6
20260906013808 84 265 0.0 0.0 0.00 0.00 0.00 66 1012.5
20260906013322 84 265 0.0 0.0 0.00 0.00 0.00 64 1012.4
20260906012818 85 265 0.0 0.0 0.00 0.00 0.00 66 1012.4
20260906012313 85 266 0.0 0.0 0.00 0.00 0.00 70 1012.4
20260906011827 85 265 0.0 0.0 0.00 0.00 0.00 66 1012.3
20260906011325 85 265 0.0 0.0 0.00 0.00 0.00 60 1012.2
20260906010820 86 265 0.0 0.0 0.00 0.00 0.00 59 1012.2
20260906010315 86 265 0.0 0.0 0.00 0.00 0.00 59 1012.3
20260906005810 87 265 0.0 0.0 0.00 0.00 0.00 59 1012.2
20260906005345 87 266 0.0 0.0 0.00 0.00 0.00 58 1012.2
20260906004859 88 265 0.0 0.0 0.00 0.00 0.00 56 1012.2
20260906004308 88 266 0.0 0.0 0.00 0.00 0.00 56 1012.3
20260906003822 89 265 0.0 0.0 0.00 0.00 0.00 56 1012.3
20260906003317 90 265 0.0 0.0 0.00 0.00 0.00 55 1012.3
20260906002811 90 265 0.0 0.0 0.00 0.00 0.00 57 1012.4
20260906002309 91 265 0.0 0.0 0.00 0.00 0.00 59 1012.4
20260906001843 92 265 0.0 0.0 0.00 0.00 0.00 57 1012.3
20260906001336 93 265 0.0 0.0 0.00 0.00 0.00 55 1012.3
20260906000810 94 265 0.0 0.0 0.00 0.00 0.00 51 1012.3
20260906000326 95 265 0.0 0.0 0.00 0.00 0.00 48 1012.3
20260905235820 95 265 0.0 0.9 0.00 0.00 0.00 46 1012.4
20260905235315 95 309 0.0 0.9 0.00 0.00 0.00 46 1012.3
20260905234810 96 300 0.0 0.0 0.00 0.00 0.00 45 1012.2
20260905234345 96 356 0.0 0.0 0.00 0.00 0.00 43 1012.2
20260905233818 97 328 0.0 0.0 0.00 0.00 0.00 44 1012.2
20260905233336 97 276 0.0 0.0 0.00 0.00 0.00 42 1012.3
20260905232809 97 265 0.0 0.0 0.00 0.00 0.00 42 1012.2
20260905232324 98 134 0.0 0.0 0.00 0.00 0.00 42 1012.2
20260905231819 98 195 0.0 0.9 0.00 0.00 0.00 41 1012.2
20260905231314 98 273 0.0 0.9 0.00 0.00 0.00 42 1012.0
20260905230829 98 281 0.0 0.0 0.00 0.00 0.00 41 1012.1
20260905230324 98 313 0.0 0.0 0.00 0.00 0.00 40 1012.0
20260905225818 98 322 0.0 0.0 0.00 0.00 0.00 40 1012.0
20260905225317 99 235 0.0 1.7 0.00 0.00 0.00 39 1012.0
20260905224812 99 94 0.0 1.7 0.00 0.00 0.00 39 1012.1
20260905224327 99 213 0.0 1.7 0.00 0.00 0.00 40 1012.0
20260905223823 99 134 0.0 1.7 0.00 0.00 0.00 40 1012.0
20260905223316 99 305 0.0 0.0 0.00 0.00 0.00 39 1012.1
20260905222811 100 184 0.0 0.9 0.00 0.00 0.00 38 1012.1
20260905222325 100 184 0.0 2.6 0.00 0.00 0.00 38 1012.1
20260905221820 100 304 0.0 0.9 0.00 0.00 0.00 38 1012.2
20260905221320 101 322 0.0 2.6 0.00 0.00 0.00 39 1012.3
20260905220815 101 228 0.0 2.6 0.00 0.00 0.00 38 1012.3
20260905220309 102 300 0.0 3.5 0.00 0.00 0.00 36 1012.3
20260905215844 102 209 0.0 3.5 0.00 0.00 0.00 36 1012.4
20260905215317 102 287 0.0 0.9 0.00 0.00 0.00 36 1012.4
20260905214810 102 274 0.0 0.0 0.00 0.00 0.00 38 1012.5
20260905214325 103 289 0.0 0.0 0.00 0.00 0.00 36 1012.5
20260905213820 103 319 0.0 0.9 0.00 0.00 0.00 37 1012.5
20260905213318 103 109 0.0 1.7 0.00 0.00 0.00 39 1012.6
20260905212814 102 77 0.0 2.6 0.00 0.00 0.00 38 1012.6
20260905212309 102 199 0.0 2.6 0.00 0.00 0.00 38 1012.7
20260905211823 103 277 0.0 2.6 0.00 0.00 0.00 37 1012.8
20260905211318 103 212 0.9 2.6 0.00 0.00 0.00 38 1013.0
20260905210813 101 229 0.0 1.7 0.00 0.00 0.00 39 1013.0
20260905210327 100 271 0.0 1.7 0.00 0.00 0.00 40 1013.0
20260905205822 99 283 0.9 1.7 0.00 0.00 0.00 41 1013.1
20260905205319 99 350 0.0 1.7 0.00 0.00 0.00 40 1013.3
20260905204813 99 328 0.0 1.7 0.00 0.00 0.00 42 1013.3
20260905204327 98 143 0.0 0.0 0.00 0.00 0.00 43 1013.4
20260905203821 98 127 0.0 2.6 0.00 0.00 0.00 42 1013.5
20260905203316 99 312 0.9 2.6 0.00 0.00 0.00 41 1013.6
20260905202811 98 129 0.0 0.9 0.00 0.00 0.00 43 1013.6
20260905202346 98 208 0.0 1.7 0.00 0.00 0.00 43 1013.6
20260905201819 99 309 0.0 1.7 0.00 0.00 0.00 42 1013.8
20260905201318 100 239 0.0 4.3 0.00 0.00 0.00 41 1013.8
20260905200813 101 319 2.6 4.3 0.00 0.00 0.00 40 1013.7
20260905200308 102 288 0.0 3.5 0.00 0.00 0.00 40 1013.8
20260905195843 102 3 0.0 5.2 0.00 0.00 0.00 41 1013.9
20260905195317 101 293 0.0 5.2 0.00 0.00 0.00 42 1013.9
20260905194812 101 276 0.0 7.0 0.00 0.00 0.00 43 1013.9
20260905194327 101 292 1.7 7.0 0.00 0.00 0.00 42 1014.1
20260905193822 102 285 0.0 4.3 0.00 0.00 0.00 38 1014.0
20260905193337 102 79 2.6 4.3 0.00 0.00 0.00 38 1014.1
20260905192816 102 207 1.7 2.6 0.00 0.00 0.00 38 1014.2
20260905192311 101 122 0.0 4.3 0.00 0.00 0.00 42 1014.2
20260905191826 100 212 1.7 4.3 0.00 0.00 0.00 41 1014.3
20260905191321 100 354 0.0 2.6 0.00 0.00 0.00 41 1014.4
20260905190816 99 171 0.0 2.6 0.00 0.00 0.00 42 1014.5
20260905190332 98 6 0.0 3.5 0.00 0.00 0.00 43 1014.7
20260905185825 97 306 0.9 3.5 0.00 0.00 0.00 48 1014.8
20260905185321 97 271 0.0 0.9 0.00 0.00 0.00 45 1014.8
20260905184818 97 321 0.0 5.2 0.00 0.00 0.00 45 1014.9
20260905184331 98 315 0.9 5.2 0.00 0.00 0.00 44 1015.0
20260905183825 99 14 1.7 3.5 0.00 0.00 0.00 44 1015.0
20260905183320 100 306 0.9 7.0 0.00 0.00 0.00 44 1015.1
20260905182815 100 349 2.6 7.0 0.00 0.00 0.00 44 1015.1
20260905182310 100 23 0.9 4.3 0.00 0.00 0.00 42 1015.2
20260905181825 100 298 0.9 4.3 0.00 0.00 0.00 43 1015.3
20260905181320 100 91 0.0 4.3 0.00 0.00 0.00 45 1015.3
20260905180819 100 313 0.0 4.3 0.00 0.00 0.00 45 1015.4
20260905180313 100 110 0.9 4.3 0.00 0.00 0.00 44 1015.5
20260905175809 99 317 1.7 4.3 0.00 0.00 0.00 44 1015.5